Regional Weather Roundup
Issued by NWS

Home | Current Version | Previous Version | Graphics & Text | Print | Product List | Glossary On
Versions: 1 2 3 4 5 6 7 8 9 10 11 12 13 14 15 16 17 18 19 20 21 22 23 24 25 26 27 28 29 30 31 32 33 34 35 36 37 38 39 40 41 42 43 44 45 46 47 48 49 50
000
ASUS43 KFSD 300910
RWRSD

WEATHER ROUNDUP FOR SOUTH DAKOTA
NATIONAL WEATHER SERVICE SIOUX FALLS SD
400 AM CDT SAT JUL 30 2016

NOTE: "FAIR" INDICATES FEW OR NO CLOUDS BELOW 12,000 FEET WITH NO
SIGNIFICANT WEATHER AND/OR OBSTRUCTIONS TO VISIBILITY.


SDZ001>005-009-010-012>017-301000-
NORTHWEST AND NORTH CENTRAL SOUTH DAKOTA

CITY           SKY/WX    TMP DP  RH WIND       PRES   REMARKS
BUFFALO          N/A     64  56  75 SW6       29.89F
FAITH            N/A     62  59  90 SE14      29.95F
MOBRIDGE       MOCLDY    68  57  68 S9        29.94F
$$

SDZ012>016-024>037-041>051-057-063-072>074-301000-
SOUTHWEST AND SOUTH CENTRAL SOUTH DAKOTA

CITY           SKY/WX    TMP DP  RH WIND       PRES   REMARKS
RAPID CTY ARPT CLEAR     58  55  90 SE5       29.98S
PIERRE         CLEAR     64  55  72 SE10      29.96F
CUSTER         CLEAR     54  50  86 W6        30.13S
ELLSWORTH AFB  CLEAR     62  56  81 S2        29.97F
PHILIP         CLEAR     64  62  93 E8        29.95F
PINE RIDGE     CLEAR     55  55 100 NE3       30.01F
WINNER         CLOUDY    67  59  75 S12       30.01F
$$

SDZ004>011-016>023-039-040-301000-
NORTHEAST SOUTH DAKOTA

CITY           SKY/WX    TMP DP  RH WIND       PRES   REMARKS
ABERDEEN       CLOUDY    65  58  78 S8        29.99S
WATERTOWN      MOCLDY    62  55  77 S8        30.03S
BROOKINGS      PTCLDY    56  53  90 SW3       30.05S
SISSETON         N/A     65  58  78 S7        29.99S
$$

SDZ017-020-022-023-036>040-048>070-301000-
SOUTHEAST SOUTH DAKOTA

CITY           SKY/WX    TMP DP  RH WIND       PRES   REMARKS
SIOUX FALLS    CLEAR     56  53  90 CALM      30.04F
HURON          CLEAR     62  55  77 SE12      30.00F
CHAMBERLAIN    CLEAR     62  59  89 SE6       30.00F
MITCHELL       CLEAR     62  57  83 SE7       30.02F
YANKTON        CLEAR     59  55  88 E8        30.02S
$$

ABBREVIATIONS USED IN REMARKS
   TC - TEMPERATURE IN CELSIUS
  WCI - WIND CHILL INDEX
   HX - HEAT INDEX
  VSB - VISIBILITY





USA.gov is the U.S. government's official web portal to all federal, state and local government web resources and services.